COSMOS 2520 (42907 NORAD) Tracking and Keplerian Element Data

This shows tracking and keplerian element data for the satellite.

Feedback or suggestion? Click here.




ElementValue
Catalog42907
NameCOSMOS 2520
Epoch Orbit2739
Epoch Day34.90681128
Epoch Year2025
RAAN106.09
Inclination0.0253
Eccentricity4.58E-05
Argument of Perigee289.4747
Mean Anonmoly110.1891
Mean Motion1.00276209
Decay Rate1.41E-06
L11 42907U 17046A 25034.90681128 .00000141 00000+0 00000+0 0 9993
L22 42907 0.0253 106.0900 0000458 289.4747 110.1891 1.00276209 27397



Live tracking and technical data element details for COSMOS 2520 (NORAD 42907). COSMOS 2520 can be tracked NOW for your location showing map with azimuth and elevation plus other details from your city location.







IsCatalogInMostPopularTable: catalog: 42907, numindb: 781
Update: records affected: 1



GetName: 42907 COSMOS 2520

Hit Count: updated at: Wed, 30 Apr 2025 16:39:22 GMT